Avoca, PA

5:01 PM EST on November 14, 2019 (GMT -0500)
Wilkes-Barre-Scranton International

Weather History for KAVP - September, 2019

Change the Weather History Date:

Friday, September 20, 2019

  Actual Average Record
Temperature  
Mean Temperature 61 °F 61 °F  
Max Temperature 77 °F 71 °F 91 °F (1983)
Min Temperature 45 °F 51 °F 33 °F (1993)
Degree Days  
Heating Degree Days 4 6  
Month to date heating degree days 20 63  
Since 1 July heating degree days 21 89  
Cooling Degree Days 0 1  
Month to date cooling degree days 61 44  
Year to date cooling degree days 800 568  
Growing Degree Days 11 (Base 50)    
Moisture  
Dew Point 48 °F    
Average Humidity 65    
Maximum Humidity 89    
Minimum Humidity 41    
Precipitation  
Precipitation 0.00 in 0.15 in 1.43 in (1938)
Month to date precipitation 0.55 2.67  
Year to date precipitation 38.21 27.70  
Sea Level Pressure  
Sea Level Pressure 30.24 in    
Wind  
Wind Speed 5 mph (SSE)    
Max Wind Speed 10 mph    
Max Gust Speed 14 mph    
Visibility 10 miles    
Events      
T = Trace of Precipitation, MM = Missing Value Source: NWS Daily Summary

Daily Weather History Graph

Daily Weather History Graph

Search for Another Location

Airport or City:

Astronomy

Sep. 20, 2019 Rise Set
Actual Time 6:48 AM EDT 7:03 PM EDT
Civil Twilight 6:20 AM EDT 7:31 PM EDT
Nautical Twilight 5:47 AM EDT 8:03 PM EDT
Astronomical Twilight 5:14 AM EDT 8:36 PM EDT
Moon 10:48 PM EDT (9/20) 12:54 PM EDT (9/20)
Length of Visible Light 13h 11m
Length of Day
12h 15m
Waning Gibbous, 65% of the Moon is Illuminated
Sep 20
Waning Gibbous
Sep 21
Last Quarter
Sep 28
New
Oct 5
First Quarter
Oct 13
Full

Hourly Weather History & Observations

Time (EDT) Temp. Windchill Dew Point Humidity Pressure Visibility Wind Dir Wind Speed Gust Speed Precip Events Conditions
12:54 AM 50.0 °F - 43.0 °F 77% 30.27 in 10.0 mi East 6.9 mph - N/A   Clear
1:54 AM 48.9 °F - 43.0 °F 80% 30.27 in 10.0 mi East 8.1 mph - N/A   Clear
2:54 AM 48.0 °F - 42.1 °F 80% 30.27 in 10.0 mi SE 4.6 mph - N/A   Clear
3:54 AM 46.9 °F - 42.1 °F 83% 30.27 in 10.0 mi ESE 3.5 mph - N/A   Clear
4:54 AM 46.9 °F - 42.1 °F 83% 30.28 in 10.0 mi ESE 6.9 mph - N/A   Clear
5:54 AM 46.0 °F 43.9 °F 42.1 °F 86% 30.28 in 10.0 mi ESE 4.6 mph - N/A   Clear
6:54 AM 45.0 °F 41.8 °F 41.0 °F 86% 30.30 in 10.0 mi ESE 5.8 mph - N/A   Clear
8:54 AM 52.0 °F - 45.0 °F 77% 30.32 in 10.0 mi WSW 3.5 mph - N/A   Clear
9:54 AM 57.9 °F - 46.9 °F 67% 30.30 in 10.0 mi NW 3.5 mph - N/A   Clear
10:54 AM 64.0 °F - 48.0 °F 56% 30.29 in 10.0 mi West 4.6 mph - N/A   Clear
11:54 AM 68.0 °F - 46.0 °F 45% 30.27 in 10.0 mi Variable 5.8 mph - N/A   Clear
12:54 PM 72.0 °F - 48.9 °F 44% 30.24 in 10.0 mi West 6.9 mph - N/A   Clear
1:54 PM 73.9 °F - 50.0 °F 43% 30.22 in 10.0 mi WNW 8.1 mph - N/A   Clear
2:54 PM 75.0 °F - 50.0 °F 41% 30.20 in 10.0 mi WNW 3.5 mph - N/A   Clear
3:54 PM 75.9 °F - 51.1 °F 42% 30.19 in 10.0 mi SW 6.9 mph - N/A   Clear
4:54 PM 75.9 °F - 52.0 °F 43% 30.18 in 10.0 mi West 8.1 mph - N/A   Clear
5:54 PM 75.0 °F - 53.1 °F 46% 30.17 in 10.0 mi WSW 8.1 mph - N/A   Clear
6:54 PM 71.1 °F - 52.0 °F 51% 30.19 in 10.0 mi SSW 4.6 mph - N/A   Clear
7:54 PM 64.9 °F - 54.0 °F 68% 30.21 in 10.0 mi SSE 3.5 mph - N/A   Clear
8:54 PM 60.1 °F - 54.0 °F 80% 30.22 in 10.0 mi SE 3.5 mph - N/A   Clear
9:54 PM 60.1 °F - 53.1 °F 78% 30.22 in 10.0 mi ESE 3.5 mph - N/A   Clear
10:54 PM 59.0 °F - 52.0 °F 78% 30.22 in 10.0 mi ESE 4.6 mph - N/A   Clear
11:54 PM 57.0 °F - 52.0 °F 83% 30.22 in 10.0 mi ESE 3.5 mph - N/A   Clear